Location: Observatoire
(46.1952°N, 5.3391°E)
Time: 21:44:11
(UTC+01:00)

A-11 Canister half - Pass Details

Date: 23 February 2026
Orbit: 1525 x 1683 km, 47.3° (Epoch: 5 March)

Event Time Altitude Azimuth Distance (km) Brightness Sun altitude
Rises 16:13:09 0° 239° (WSW) 4,750 13.3 18.3°
Reaches altitude 10° 16:16:15 10° 238° (WSW) 3,748 13.6 17.9°
Maximum altitude 16:25:39 73° 156° (SSE) 1,593 9.5 16.6°
Drops below altitude 10° 16:34:53 10° 74° (ENE) 3,693 10.5 15.3°
Sets 16:37:56 0° 72° (ENE) 4,677 10.9 14.8°
